This is the latest recevied weather packets stored in our database for station/object KB3AWQ. If no packets are shown the sender has not sent any weather packets the latest 10 day(s).
| Time | Temp. | Humidity | Pressure | Rain* | Wind** | Luminosity | Snow |
|---|---|---|---|---|---|---|---|
| 1787759967 | 23.33° C | 76% | 1019.5 hPa | 0 mm | - | 837 W/m² | - |
| 1787759668 | 22.78° C | 78% | 1019.4 hPa | 0 mm | - | 843 W/m² | - |
| 1787759367 | 22.78° C | 81% | 1019.5 hPa | 0 mm | - | 840 W/m² | - |
| 1787759067 | 22.22° C | 79% | 1019.6 hPa | 0 mm | - | 833 W/m² | - |
| 1787758766 | 22.22° C | 80% | 1019.6 hPa | 0 mm | - | 824 W/m² | - |
| 1787758468 | 21.67° C | 80% | 1019.7 hPa | 0 mm | - | 816 W/m² | - |
| 1787758166 | 21.67° C | 81% | 1019.8 hPa | 0 mm | - | 807 W/m² | - |
| 1787757867 | 21.11° C | 82% | 1019.8 hPa | 0 mm | - | 797 W/m² | - |
| 1787757566 | 21.11° C | 84% | 1019.8 hPa | 0 mm | - | 787 W/m² | - |
| 1787757271 | 20.56° C | 86% | 1020 hPa | 0 mm | - | 775 W/m² | - |
| 1787756967 | 20.56° C | 86% | 1020.1 hPa | 0 mm | - | 755 W/m² | - |
| 1787756666 | 20.56° C | 86% | 1020.1 hPa | 0 mm | - | 695 W/m² | - |
| 1787756367 | 20° C | 87% | 1020.2 hPa | 0 mm | - | 732 W/m² | - |
| 1787756066 | 20° C | 89% | 1020.1 hPa | 0 mm | - | 645 W/m² | - |
| 1787755767 | 19.44° C | 89% | 1020.2 hPa | 0 mm | - | 594 W/m² | - |
| 1787755466 | 19.44° C | 87% | 1020.2 hPa | 0 mm | - | 661 W/m² | - |
| 1787755166 | 18.89° C | 89% | 1020.2 hPa | 0 mm | - | 626 W/m² | - |
| 1787754867 | 18.89° C | 92% | 1020.2 hPa | 0 mm | - | 651 W/m² | - |
| 1787754566 | 18.89° C | 91% | 1020.3 hPa | 0 mm | - | 707 W/m² | - |
| 1787754267 | 18.33° C | 90% | 1020.4 hPa | 0 mm | - | 660 W/m² | - |
| 1787753966 | 17.78° C | 94% | 1020.4 hPa | 0 mm | - | 579 W/m² | - |
| 1787753666 | 17.78° C | 94% | 1020.4 hPa | 0 mm | - | 592 W/m² | - |
| 1787753366 | 17.22° C | 93% | 1020.5 hPa | 0 mm | - | 399 W/m² | - |
| 1787753067 | 17.22° C | 95% | 1020.5 hPa | 0 mm | - | 478 W/m² | - |
| 1787752767 | 16.67° C | 96% | 1020.4 hPa | 0 mm | - | 521 W/m² | - |
* Rain latest hour (hover to see other rain measurements)
** Current wind speed in m/s (hover to see current wind gust speed)